Date String (YYYY-MM-DD hh:mm:ss) UTC,Instrument flags,Ambient pressure (hPa),Sample flow (lpm),Bypass flow (lpm),Sample temperature (°C),Ambient temperature (°C),ASC tube jacket temperature (°C),LED temperature (°C),Box temperature (°C),Sample RH (%),Span deviation,Mass concentration (μg/m³),Mass concentration (μg/m³),Mass concentration (μg/m³)
DateTimeUTC,F1_M11,P_M11,Q1_M11,Q2_M11,T1_M11,T2_M11,T3_M11,T4_M11,T5_M11,U1_M11,ZSPAN_M11,X0_M11,X2_M11,X1_M11
2022-04-12 16:00:00,,0805.2,4.99,0.00,23.8,22.6,00.0,32.9,25.5,07.6,0000.0,0003.98,0001.13,0000.24
2022-04-12 16:01:00,,0805.2,5.00,0.00,23.8,22.5,00.0,32.9,25.5,07.8,0000.0,0003.74,0001.06,0000.24
2022-04-12 16:02:00,,0805.2,5.01,0.00,23.8,22.5,00.0,32.9,25.5,07.8,0000.0,0003.59,0001.04,0000.23
2022-04-12 16:03:00,,0805.2,4.99,0.00,23.8,22.5,00.0,32.9,25.5,07.8,0000.0,0003.57,0001.02,0000.23
2022-04-12 16:04:00,,0805.1,5.01,0.00,23.8,22.5,00.0,32.9,25.5,07.7,0000.0,0004.51,0001.01,0000.24
2022-04-12 16:05:00,,0805.1,5.00,0.00,23.8,22.4,00.0,32.8,25.4,07.7,0000.0,0004.70,0001.07,0000.25
2022-04-12 16:06:00,,0805.1,5.01,0.00,23.8,22.4,00.0,32.8,25.4,07.8,0000.0,0004.38,0001.00,0000.25
2022-04-12 16:07:00,,0805.2,4.99,0.00,23.8,22.4,00.0,32.8,25.4,07.8,0000.0,0005.00,0000.99,0000.25
2022-04-12 16:08:00,,0805.2,5.01,0.00,23.8,22.4,00.0,32.8,25.4,07.7,0000.0,0005.05,0000.99,0000.25
2022-04-12 16:09:00,,0805.2,5.00,0.00,23.8,22.4,00.0,32.8,25.5,07.9,0000.0,0005.13,0000.98,0000.25
2022-04-12 16:10:00,,0805.3,4.99,0.00,23.8,22.4,00.0,32.8,25.5,07.7,0000.0,0005.22,0001.01,0000.26
2022-04-12 16:11:00,,0805.2,5.01,0.00,23.8,22.4,00.0,32.8,25.5,07.6,0000.0,0005.59,0001.14,0000.27
2022-04-12 16:12:00,,0805.2,5.00,0.00,23.8,22.4,00.0,32.8,25.5,07.7,0000.0,0005.76,0001.24,0000.28
2022-04-12 16:13:00,,0805.2,5.01,0.00,23.8,22.5,00.0,32.8,25.5,08.0,0000.0,0005.87,0001.28,0000.29
2022-04-12 16:14:00,,0805.4,4.99,0.00,23.8,22.5,00.0,32.8,25.5,07.9,0000.0,0005.78,0001.25,0000.29
2022-04-12 16:15:00,,0805.4,5.01,0.00,23.8,22.5,00.0,32.8,25.5,07.8,0000.0,0004.09,0001.23,0000.29
2022-04-12 16:16:00,,0805.6,5.00,0.00,23.8,22.5,00.0,32.8,25.5,07.7,0000.0,0003.85,0001.19,0000.28
2022-04-12 16:17:00,,0805.7,4.99,0.00,23.8,22.5,00.0,32.8,25.5,07.7,0000.0,0003.85,0001.17,0000.28
2022-04-12 16:18:00,,0805.7,5.01,0.00,23.8,22.5,00.0,32.8,25.5,07.9,0000.0,0003.13,0001.13,0000.28
2022-04-12 16:19:00,,0805.8,4.99,0.00,23.8,22.5,00.0,32.8,25.5,07.7,0000.0,0002.95,0001.12,0000.29
2022-04-12 16:20:00,,0806.0,5.00,0.00,23.8,22.5,00.0,32.9,25.5,07.8,0000.0,0003.13,0001.17,0000.29
2022-04-12 16:21:00,,0806.1,4.99,0.00,23.8,22.6,00.0,32.9,25.5,07.8,0000.0,0003.03,0001.14,0000.30
2022-04-12 16:22:00,,0806.2,5.01,0.00,23.8,22.6,00.0,32.8,25.5,08.1,0000.0,0002.84,0001.07,0000.29
2022-04-12 16:23:00,,0806.3,4.99,0.00,23.8,22.6,00.0,32.8,25.5,07.9,0000.0,0002.77,0001.02,0000.29
2022-04-12 16:24:00,,0806.3,5.01,0.00,23.8,22.6,00.0,32.8,25.5,08.0,0000.0,0002.82,0001.03,0000.30
2022-04-12 16:25:00,,0806.3,4.99,0.00,23.7,22.6,00.0,32.8,25.5,07.8,0000.0,0003.30,0001.17,0000.30
2022-04-12 16:26:00,,0806.3,5.01,0.00,23.7,22.6,00.0,32.8,25.5,07.8,0000.0,0003.28,0001.16,0000.30
2022-04-12 16:27:00,,0806.3,5.00,0.00,23.7,22.6,00.0,32.8,25.4,07.8,0000.0,0003.18,0001.14,0000.31
2022-04-12 16:28:00,,0806.3,5.01,0.00,23.7,22.6,00.0,32.8,25.4,08.1,0000.0,0003.20,0001.19,0000.32
2022-04-12 16:29:00,,0806.3,5.00,0.00,23.7,22.6,00.0,32.8,25.5,07.9,0000.0,0003.27,0001.22,0000.32
2022-04-12 16:30:00,,0806.4,4.99,0.00,23.7,22.7,00.0,32.8,25.5,07.9,0000.0,0003.23,0001.21,0000.31
2022-04-12 16:31:00,,0806.3,4.99,0.00,23.7,22.7,00.0,32.8,25.5,08.1,0000.0,0004.38,0001.24,0000.31
2022-04-12 16:32:00,,0806.3,5.01,0.00,23.7,22.7,00.0,32.8,25.5,08.3,0000.0,0004.56,0001.26,0000.30
2022-04-12 16:33:00,,0806.4,5.00,0.00,23.7,22.8,00.0,32.7,25.5,08.1,0000.0,0004.70,0001.31,0000.30
2022-04-12 16:34:00,,0806.5,4.99,0.00,23.7,22.8,00.0,32.7,25.5,08.2,0000.0,0004.83,0001.33,0000.30
2022-04-12 16:35:00,,0806.5,5.01,0.00,23.7,22.8,00.0,32.7,25.4,08.4,0000.0,0005.38,0001.37,0000.29
2022-04-12 16:36:00,,0806.6,5.00,0.00,23.7,22.8,00.0,32.7,25.4,08.0,0000.0,0005.23,0001.31,0000.29
2022-04-12 16:37:00,,0806.6,4.99,0.00,23.7,22.8,00.0,32.7,25.4,08.0,0000.0,0005.26,0001.31,0000.30
2022-04-12 16:38:00,,0806.6,4.99,0.00,23.7,22.8,00.0,32.7,25.4,07.6,0000.0,0005.26,0001.30,0000.29
2022-04-12 16:39:00,,0806.7,5.02,0.00,23.7,22.8,00.0,32.7,25.5,07.7,0000.0,0005.64,0001.35,0000.29
2022-04-12 16:40:00,,0806.7,4.99,0.00,23.7,22.8,00.0,32.7,25.5,07.6,0000.0,0006.01,0001.38,0000.30
2022-04-12 16:41:00,,0806.7,4.99,0.00,23.7,22.8,00.0,32.7,25.5,07.5,0000.0,0006.05,0001.41,0000.31
2022-04-12 16:42:00,,0806.9,4.99,0.00,23.7,22.9,00.0,32.7,25.5,07.9,0000.0,0004.97,0001.39,0000.32
2022-04-12 16:43:00,,0806.9,4.99,0.00,23.7,22.9,00.0,32.7,25.5,08.1,0000.0,0006.17,0001.42,0000.34
2022-04-12 16:44:00,,0806.8,5.01,0.00,23.7,22.8,00.0,32.7,25.5,07.5,0000.0,0006.58,0001.39,0000.35
2022-04-12 16:45:00,,0806.7,5.00,0.00,23.7,22.8,00.0,32.7,25.5,07.3,0000.0,0006.56,0001.36,0000.35
2022-04-12 16:46:00,,0806.6,5.00,0.00,23.7,22.9,00.0,32.7,25.5,07.4,0000.0,0006.18,0001.35,0000.36
2022-04-12 16:47:00,,0806.8,4.99,0.00,23.7,22.9,00.0,32.7,25.5,07.1,0000.0,0006.10,0001.35,0000.37
2022-04-12 16:48:00,,0806.8,5.01,0.00,23.7,22.9,00.0,32.7,25.5,07.3,0000.0,0006.26,0001.46,0000.38
2022-04-12 16:49:00,,0806.7,5.00,0.00,23.7,22.9,00.0,32.7,25.5,07.4,0000.0,0007.16,0001.56,0000.40
2022-04-12 16:50:00,,0806.6,4.99,0.00,23.7,22.8,00.0,32.7,25.5,07.4,0000.0,0007.14,0001.61,0000.41
2022-04-12 16:51:00,,0806.7,5.01,0.00,23.7,22.8,00.0,32.7,25.5,07.4,0000.0,0007.32,0001.63,0000.42
2022-04-12 16:52:00,,0806.8,5.00,0.00,23.7,22.8,00.0,32.7,25.5,07.3,0000.0,0007.54,0001.71,0000.45
2022-04-12 16:53:00,,0806.9,5.01,0.00,23.7,22.8,00.0,32.7,25.5,06.9,0000.0,0007.66,0001.81,0000.47
2022-04-12 16:54:00,,0806.8,4.99,0.00,23.7,22.8,00.0,32.7,25.5,07.1,0000.0,0007.35,0002.00,0000.50
2022-04-12 16:55:00,,0806.7,4.99,0.00,23.7,22.7,00.0,32.7,25.5,07.1,0000.0,0007.28,0002.12,0000.52
2022-04-12 16:56:00,,0806.8,5.00,0.00,23.7,22.7,00.0,32.7,25.5,07.0,0000.0,0007.57,0002.34,0000.54
2022-04-12 16:57:00,,0806.7,4.99,0.00,23.7,22.7,00.0,32.7,25.4,06.7,0000.0,0007.74,0002.51,0000.56
2022-04-12 16:58:00,,0806.5,4.99,0.00,23.7,22.6,00.0,32.7,25.4,06.8,0000.0,0007.91,0002.60,0000.58
2022-04-12 16:59:00,,0806.2,5.02,0.00,23.7,22.6,00.0,32.7,25.4,06.9,0000.0,0007.97,0002.63,0000.60
